User: anonymous   Login
Location: Pine Mountain Observatory
(43.7910°N, 120.9377°W)
Time: 10:35:40
(UTC-07:00)
Language:

IDEFIX/ARIANE 42P - Orbit

View from above orbital plane
View from above orbital plane
View from above satellite
View from above satellite

Ground track
Ground track

The orbit data is extracted from the following two-line orbital elements,

1 27422U 02021B   15187.67102749  .00000080  00000-0  47449-4 0  9990
2 27422 098.2558 215.9038 0012355 179.6015 180.5180 14.29195930685048
Epoch (UTC): 06 July 2015 16:06:16
Eccentricity: 0.0012355
inclination: 98.2558°
perigee height: 785 km
apogee height: 803 km
right ascension of ascending node: 215.9038°
argument of perigee: 179.6015°
revolutions per day: 14.29195930
mean anomaly at epoch: 180.5180°
orbit number at epoch: 68504

The dashed part of the orbit path shows where the satellite is in the earth's shadow,  

DLR